Location: Baggettsville
(36.4767°N, 86.7303°W)
Time: 14:46:08
(UTC+00:00)

N. Korean satellite - Pass Details

Date: 24 September 2021
Orbit: 450 x 495 km, 97.3° (Epoch: 19 October)

Event Time Altitude Azimuth Distance (km) Brightness Sun altitude
Rises 10:17:50 0° 27° (NNE) 2,527 10.8 -16.6°
Reaches altitude 10° 10:20:15 10° 44° (NE) 1,654 10.1 -16.1°
Maximum altitude 10:23:02 22° 96° (E) 1,113 9.3 -15.5°
Drops below altitude 10° 10:25:51 10° 148° (SSE) 1,663 9.5 -15.0°
Sets 10:28:16 0° 164° (SSE) 2,546 10.3 -14.5°
